Location: Six Mile Lake
(44.9000°N, 79.7170°W)
Time: 23:39:58
(UTC-04:00)

ESTCUBE 1 - Pass Details

Date: 08 July 2022
Orbit: 646 x 657 km, 97.9° (Epoch: 13 August)

Event Time Altitude Azimuth Distance (km) Brightness Sun altitude
Exits shadow 22:23:46 13° 113° (ESE) 1,860 ? -11.2°
Maximum altitude 22:26:43 24° 65° (ENE) 1,352 ? -11.5°
Drops below altitude 10° 22:30:18 10° 13° (NNE) 2,064 ? -11.9°
Sets 22:32:51 0° 359° (N) 2,982 ? -12.2°
